FW7889 Weather Reports


time (UTC)temp
F
wind
direction
speed
knots
gust
knots
rain 1hr
in
rain 24hr
in
rain mn
in
humidity
%
barometer
mb
20260901133608 63 193 2.6 2.6 0.19 0.77 0.77 99 1069.7
20260901132608 63 170 4.3 5.2 0.05 0.74 0.74 99 1070.2
20260901131607 62 84 2.6 2.6 0.00 0.73 0.73 99 1071.2
20260901130603 62 353 0.0 0.9 0.00 0.73 0.73 99 1070.8
20260901125600 62 35 1.7 1.7 0.00 0.73 0.73 99 1070.7
20260901124555 62 339 1.7 1.7 0.00 0.73 0.73 99 1070.8
20260901123551 62 334 0.0 0.9 0.00 0.73 0.73 99 1070.7
20260901122549 62 121 0.9 0.9 0.07 0.73 0.73 99 1070.6
20260901121549 62 284 0.0 0.0 0.00 0.72 0.72 99 1071.0
20260901120544 62 295 0.0 0.0 0.00 0.72 0.72 99 1070.8
20260901115541 62 313 0.0 0.0 0.00 0.72 0.72 99 1070.5
20260901114540 62 294 0.0 0.0 0.00 0.72 0.72 99 1071.0
20260901113537 62 291 0.0 0.0 0.07 0.72 0.72 99 1070.7
20260901112533 62 281 0.0 0.0 0.00 0.71 0.71 99 1070.8
20260901111532 62 285 0.0 0.0 0.12 0.71 0.71 99 1071.0
20260901110527 62 304 0.0 0.0 0.05 0.69 0.69 99 1071.2
20260901105525 62 277 0.0 0.0 0.24 0.68 0.68 99 1071.2
20260901104520 62 280 0.0 0.0 0.19 0.64 0.64 99 1071.2
20260901103515 62 268 0.0 0.9 0.00 0.61 0.61 99 1070.8
20260901102511 62 252 0.9 0.9 0.00 0.61 0.61 99 1070.6
20260901101508 62 259 0.0 0.0 0.00 0.61 0.61 99 1071.0
20260901100508 62 106 0.9 0.9 0.05 0.61 0.61 99 1070.7
20260901095505 62 98 2.6 2.6 0.26 0.60 0.60 99 1070.6
20260901094504 62 292 0.0 0.0 0.42 0.55 0.55 99 1071.0
20260901093504 62 285 0.0 0.0 0.05 0.48 0.48 99 1070.6
20260901092500 63 264 0.0 0.0 0.12 0.46 0.46 99 1070.3
20260901091458 62 282 0.0 0.0 0.07 0.44 0.44 99 1070.3
20260901090458 62 282 0.0 0.0 0.12 0.43 0.43 99 1070.5
20260901085454 63 288 0.0 0.0 0.17 0.41 0.41 99 1070.6
20260901084452 62 98 1.7 1.7 0.26 0.38 0.38 99 1070.5
20260901083448 63 172 0.9 0.9 0.24 0.33 0.33 99 1070.6
20260901082447 62 275 0.0 0.0 0.19 0.29 0.29 99 1070.4
20260901081443 63 105 3.5 4.3 0.61 0.25 0.25 99 1070.2
20260901080438 63 302 0.0 0.0 0.38 0.14 0.14 99 1070.8
20260901075433 63 267 0.0 0.0 0.12 0.08 0.08 99 1070.3
20260901074433 63 191 0.9 0.9 0.05 0.06 0.06 99 1070.2
20260901073431 63 89 2.6 2.6 0.12 0.05 0.05 99 1070.3
20260901072432 64 135 1.7 1.7 0.19 0.03 0.03 99 1070.7
20260901071431 64 209 0.9 0.9 0.00 0.00 0.00 99 1070.8
20260901070427 64 197 0.9 0.9 0.00 0.00 0.00 99 1071.0
20260901065421 64 181 0.9 1.7 0.00 0.00 0.00 99 1071.3
20260901064418 64 202 1.7 1.7 0.00 0.00 0.00 99 1071.3
20260901063417 64 212 1.7 1.7 0.00 0.00 0.00 99 1071.1
20260901062415 64 198 1.7 1.7 0.00 0.00 0.00 99 1071.4
20260901061412 64 242 0.9 0.9 0.00 0.00 0.00 99 1071.5
20260901060409 64 199 0.9 0.9 0.00 0.00 0.00 99 1071.3
20260901055404 63 238 0.9 0.9 0.00 0.00 0.00 99 1071.6
20260901054404 63 227 0.9 0.9 0.00 0.00 0.00 99 1071.7
20260901053400 63 189 2.6 2.6 0.00 0.00 0.00 99 1071.7
20260901052357 63 256 0.0 0.0 0.00 0.00 0.00 99 1071.6
20260901051357 63 194 1.7 1.7 0.00 0.00 0.00 99 1071.8
20260901050353 63 274 0.0 0.0 0.00 0.00 0.00 99 1072.0
20260901045353 63 273 0.9 0.9 0.00 0.00 0.00 99 1072.3
20260901044351 63 253 0.0 0.0 0.00 0.00 0.00 99 1072.1
20260901043348 63 142 1.7 1.7 0.00 0.00 0.00 99 1072.2
20260901042348 63 194 0.9 1.7 0.00 0.00 0.00 99 1071.8
20260901041345 63 177 0.9 0.9 0.00 0.00 0.00 99 1072.3
20260901040344 63 225 0.0 0.0 0.00 0.00 0.00 99 1072.0
20260901035343 63 226 0.9 0.9 0.00 0.01 0.01 99 1072.3
20260901034342 63 224 0.9 0.9 0.00 0.01 0.01 99 1072.5
20260901033341 63 194 0.9 1.7 0.00 0.01 0.01 99 1072.1
20260901032340 63 162 1.7 1.7 0.00 0.01 0.01 99 1072.3
20260901031337 63 201 1.7 1.7 0.00 0.01 0.01 99 1072.5
20260901030332 63 257 0.0 0.0 0.00 0.01 0.01 99 1072.5
20260901025332 63 235 0.9 0.9 0.00 0.01 0.01 99 1072.6
20260901024332 63 201 0.9 0.9 0.00 0.01 0.01 99 1072.6
20260901023331 63 212 0.0 0.0 0.00 0.01 0.01 99 1072.6
20260901022328 63 221 0.9 1.7 0.00 0.01 0.01 99 1072.6
20260901021325 63 249 0.0 0.9 0.00 0.01 0.01 99 1072.6
20260901020321 63 194 0.9 0.9 0.00 0.01 0.01 99 1072.8
20260901015317 63 261 0.0 0.0 0.00 0.01 0.01 99 1072.9
20260901014312 63 263 0.0 0.9 0.00 0.01 0.01 99 1072.9
20260901013309 63 265 0.0 0.0 0.00 0.01 0.01 99 1072.8
20260901012306 63 268 0.0 0.0 0.00 0.01 0.01 99 1073.4
20260901011301 63 280 0.0 0.0 0.00 0.01 0.01 99 1073.4
20260901010302 63 275 0.0 0.0 0.00 0.01 0.01 99 1072.9
20260901005256 63 275 0.0 0.0 0.00 0.01 0.01 99 1072.9
20260901004251 63 186 0.9 0.9 0.00 0.01 0.01 99 1072.4
20260901003251 63 236 0.9 0.9 0.00 0.01 0.01 99 1072.8
20260901002251 63 257 0.0 0.0 0.00 0.01 0.01 99 1072.5
20260901001248 64 264 0.0 0.0 0.00 0.01 0.01 99 1072.4
20260901000244 64 256 0.0 0.9 0.00 0.01 0.01 99 1072.3
20260831235244 64 249 0.0 0.9 0.00 0.01 0.01 99 1072.5
20260831234243 64 236 0.9 0.9 0.00 0.01 0.01 99 1072.6
20260831233240 64 241 0.9 1.7 0.00 0.01 0.01 99 1072.5
20260831232237 64 193 1.7 1.7 0.00 0.01 0.01 99 1072.8
20260831231235 64 257 0.0 0.9 0.00 0.01 0.01 99 1072.6
20260831230230 65 244 0.0 0.9 0.00 0.01 0.01 99 1072.8
20260831225225 65 237 0.9 0.9 0.00 0.01 0.01 99 1073.1
20260831224221 65 272 0.0 0.0 0.00 0.01 0.01 99 1073.1
20260831223219 65 195 1.7 1.7 0.00 0.01 0.01 98 1073.1
20260831222216 65 260 0.0 0.0 0.00 0.01 0.01 97 1073.3
20260831221212 66 250 0.0 0.9 0.00 0.01 0.01 96 1073.1
20260831220208 66 237 0.9 0.9 0.00 0.01 0.01 95 1073.4
20260831215205 66 245 0.9 0.9 0.00 0.01 0.01 95 1073.5
20260831214204 66 197 1.7 1.7 0.00 0.01 0.01 95 1073.5
20260831213201 66 204 1.7 1.7 0.00 0.01 0.01 95 1073.5
20260831212159 66 254 0.0 0.9 0.00 0.01 0.01 95 1073.8
20260831211159 66 259 0.0 0.9 0.00 0.01 0.01 95 1073.6
20260831210155 66 262 0.0 0.0 0.00 0.01 0.01 95 1073.8
20260831205150 65 237 0.0 0.0 0.00 0.01 0.01 96 1073.6
20260831204149 65 255 0.0 0.9 0.05 0.01 0.01 98 1073.7
20260831203149 66 201 1.7 1.7 0.00 0.00 0.00 98 1073.9
20260831202149 66 274 0.9 0.9 0.00 0.00 0.00 97 1073.8
20260831201148 66 255 0.9 0.9 0.00 0.00 0.00 97 1073.6
20260831200144 66 262 0.0 0.0 0.00 0.00 0.00 98 1073.8
20260831195140 65 266 0.0 0.0 0.00 0.00 0.00 99 1073.8
20260831194137 64 250 0.0 0.0 0.00 0.00 0.00 99 1073.9
20260831193132 64 255 1.7 1.7 0.00 0.00 0.00 99 1074.1
20260831192129 64 272 0.9 0.9 0.00 0.00 0.00 99 1074.1
20260831191126 66 276 1.7 1.7 0.00 0.00 0.00 96 1074.3
20260831190126 68 276 1.7 1.7 0.00 0.00 0.00 91 1074.5
20260831185123 68 272 0.9 0.9 0.00 0.00 0.00 90 1074.2
20260831184119 68 256 0.0 0.0 0.00 0.00 0.00 89 1074.2
20260831183118 68 273 0.9 0.9 0.00 0.00 0.00 88 1074.5
20260831182113 68 269 0.9 0.9 0.00 0.00 0.00 90 1074.6
20260831181113 67 265 0.9 0.9 0.00 0.00 0.00 91 1074.5
20260831180109 67 278 0.0 0.0 0.00 0.00 0.00 94 1074.6
20260831175107 67 258 0.0 0.9 0.00 0.00 0.00 95 1074.6
20260831174107 67 265 2.6 2.6 0.00 0.00 0.00 92 1074.9
20260831173102 68 265 1.7 1.7 0.00 0.00 0.00 91 1075.0
20260831172057 68 275 0.9 0.9 0.00 0.00 0.00 90 1075.1
20260831171055 68 275 4.3 4.3 0.00 0.00 0.00 89 1075.1
20260831170054 68 266 1.7 1.7 0.00 0.00 0.00 90 1075.1
20260831165051 68 252 2.6 4.3 0.00 0.00 0.00 90 1074.9
20260831164048 67 267 0.9 1.7 0.00 0.00 0.00 90 1075.0
20260831163044 68 256 3.5 4.3 0.00 0.00 0.00 90 1075.1
20260831162041 69 275 0.9 0.9 0.00 0.00 0.00 88 1075.3
20260831161040 68 268 0.9 0.9 0.00 0.00 0.00 87 1075.1
20260831160035 68 249 0.9 0.9 0.00 0.00 0.00 88 1075.3
20260831155030 68 205 0.9 0.9 0.00 0.00 0.00 89 1075.2
20260831154026 68 241 0.9 0.9 0.00 0.00 0.00 90 1075.3
20260831153023 68 277 0.0 0.9 0.00 0.00 0.00 88 1075.2
20260831152019 68 200 2.6 2.6 0.00 0.00 0.00 89 1075.2
20260831151019 68 201 1.7 1.7 0.00 0.00 0.00 91 1075.4
20260831150016 67 264 0.9 0.9 0.00 0.00 0.00 92 1075.4
20260831145012 67 257 3.5 4.3 0.00 0.00 0.00 91 1075.2
20260831144009 67 199 2.6 2.6 0.00 0.00 0.00 92 1075.2
20260831143005 66 243 0.9 0.9 0.00 0.00 0.00 92 1075.3
20260831142002 67 232 0.9 0.9 0.00 0.00 0.00 93 1075.1
20260831140956 66 254 0.9 0.9 0.00 0.00 0.00 93 1075.6
20260831135955 66 250 0.9 0.9 0.00 0.00 0.00 97 1075.4
20260831134954 65 196 0.9 1.7 0.00 0.00 0.00 96 1075.4
20260831133951 64 223 0.9 0.9 0.00 0.00 0.00 99 1075.4